This is the latest recevied weather packets stored in our database for station/object N1YZ. If no packets are shown the sender has not sent any weather packets the latest 10 day(s).
| Time | Temp. | Humidity | Pressure | Rain* | Wind** | Luminosity | Snow |
|---|---|---|---|---|---|---|---|
| 1787948909 | 30.56° C | 60% | 1035.1 hPa | 0 mm | - | 63 W/m² | - |
| 1787948605 | 31.11° C | 57% | 1035.1 hPa | 0 mm | - | 67 W/m² | - |
| 1787948301 | 31.67° C | 54% | 1035.1 hPa | 0 mm | - | 65 W/m² | - |
| 1787948000 | 31.67° C | 50% | 1035.1 hPa | 0 mm | - | 73 W/m² | - |
| 1787947698 | 31.67° C | 49% | 1035.1 hPa | 0 mm | - | 159 W/m² | - |
| 1787947393 | 31.67° C | 51% | 1035.3 hPa | 0 mm | - | 78 W/m² | - |
| 1787947092 | 32.22° C | 50% | 1035.4 hPa | 0 mm | - | 77 W/m² | - |
| 1787946792 | 32.22° C | 52% | 1035.3 hPa | 0 mm | - | 109 W/m² | - |
| 1787946489 | 32.22° C | 60% | 1035.6 hPa | 0 mm | - | 87 W/m² | - |
| 1787946185 | 32.22° C | 51% | 1035.7 hPa | 0 mm | - | 89 W/m² | - |
| 1787945880 | 32.22° C | 58% | 1035.8 hPa | 0 mm | - | 174 W/m² | - |
| 1787945575 | 32.78° C | 57% | 1035.7 hPa | 0 mm | - | 252 W/m² | - |
| 1787945270 | 32.22° C | 59% | 1035.7 hPa | 0 mm | - | 159 W/m² | - |
| 1787944970 | 32.22° C | 53% | 1035.8 hPa | 0 mm | - | 236 W/m² | - |
| 1787944667 | 32.78° C | 57% | 1035.9 hPa | 0 mm | - | 105 W/m² | - |
| 1787944363 | 33.33° C | 45% | 1035.9 hPa | 0 mm | - | 118 W/m² | - |
| 1787944058 | 33.33° C | 51% | 1036.2 hPa | 0 mm | - | 350 W/m² | - |
| 1787943753 | 33.33° C | 50% | 1036 hPa | 0 mm | - | 652 W/m² | - |
| 1787943449 | 32.78° C | 49% | 1036 hPa | 0 mm | - | 672 W/m² | - |
| 1787943143 | 32.22° C | 51% | 1036.2 hPa | 0 mm | - | 687 W/m² | - |
| 1787942833 | 32.22° C | 52% | 1036.3 hPa | 0 mm | - | 668 W/m² | - |
| 1787942529 | 31.67° C | 52% | 1036.1 hPa | 0 mm | - | 661 W/m² | - |
| 1787942228 | 32.78° C | 48% | 1036.4 hPa | 0 mm | - | 70 W/m² | - |
| 1787941923 | 32.78° C | 51% | 1036.4 hPa | 0 mm | - | 671 W/m² | - |
| 1787941617 | 32.78° C | 55% | 1036.6 hPa | 0 mm | - | 679 W/m² | - |
* Rain latest hour (hover to see other rain measurements)
** Current wind speed in m/s (hover to see current wind gust speed)